Location: Unspecified
(48.5670°N, 0.0000°E)
Time: 22:18:43
(UTC+00:00)

Altair - Pass Details

Date: 30 August 2019
Orbit: 1501 x 1683 km, 47.2° (Epoch: 21 September)

Event Time Altitude Azimuth Distance (km) Brightness Sun altitude
Exits shadow 00:06:45 30° 114° (ESE) 2,627 8.5 -32.2°
Drops below altitude 10° 00:12:43 10° 79° (E) 3,816 9.7 -32.2°
Sets 00:16:09 0° 70° (ENE) 4,776 10.4 -32.2°
